User: anonymous   Login
Location: Caltech
(34.1382°N, 118.1253°W)
Time: 01:21:50
(UTC-07:00)
Language:

Cosmos 1939 Rocket - Orbit

View from above orbital plane
View from above orbital plane
View from above satellite
View from above satellite

Ground track
Ground track

The orbit data is extracted from the following two-line orbital elements,

1 19046U 88032B   18114.84131226  .00544761  00000-0  34848-1 0  9998
2 19046  97.4874 156.9908 0035404 355.7987   4.2938 15.05795717619435
Epoch (UTC): 24 April 2018 20:11:29
Eccentricity: 0.0035404
inclination: 97.4874°
perigee height: 524 km
apogee height: 573 km
right ascension of ascending node: 156.9908°
argument of perigee: 355.7987°
revolutions per day: 15.05795717
mean anomaly at epoch: 4.2938°
orbit number at epoch: 61943

The dashed part of the orbit path shows where the satellite is in the earth's shadow,  

DLR